Temp
6 6 6 7 7 7 7 7 6 3 3 8 9 9 9 10 10 9 10 9 9 9 9 9 10 10 12 13 14 13 13 13 13 13 13 13 13 13
5 6 6 6 6 6 6 6 6 5 3 6 7 10 10 10 10 10 9 9 9 9 9 9 10 10 11 13 14 13 13 13 13 13 13 13 13 13
2 5 5 5 5 6 6 6 6 5 4 5 7 10 10 10 10 9 9 9 9 9 9 9 11 11 12 13 13 13 13 13 13 13 13 13 13 13
1 2 4 4 4 4 5 5 5 5 5 5 6 9 10 10 10 9 9 9 10 10 9 9 11 12 13 13 13 12 12 12 13 13 13 12 12 12
-1 0 1 2 2 3 4 4 5 4 5 5 5 8 10 10 10 10 10 10 10 10 10 11 12 13 13 13 13 13 12 12 13 13 12 12 12 12
-2 -1 -0 0 1 2 3 4 4 4 4 5 6 7 9 10 10 10 10 9 10 10 11 11 12 12 13 13 13 13 12 11 12 12 12 12 12 12
-2 -2 -1 0 1 1 2 3 3 4 4 5 5 7 9 9 9 10 10 10 9 9 11 11 12 12 12 12 12 13 12 12 12 11 11 11 11 12
-2 -2 -2 -1 0 1 2 3 3 4 4 5 5 7 9 9 9 10 9 9 9 9 10 9 10 12 12 12 12 12 12 12 11 11 11 11 11 12
-2 -2 -2 -1 -1 1 1 3 3 4 5 5 5 6 7 8 9 10 9 10 9 9 10 8 10 10 11 12 11 11 11 11 11 11 11 11 11 11
-2 -2 -2 -2 -1 0 0 1 3 4 4 5 5 6 8 8 8 10 10 9 9 8 10 5 7 9 10 11 11 11 11 11 11 10 10 11 11 11
-2 -2 -2 -1 -1 -0 0 2 3 4 4 5 6 7 7 9 10 10 8 8 8 7 8 6 4 6 7 9 11 11 11 11 10 10 10 10 10 10
-2 -2 -2 -1 -0 0 1 3 3 3 4 5 6 6 7 8 10 9 9 8 7 6 7 5 5 7 4 4 8 10 10 10 10 10 10 10 10 10
-2 -2 -2 -1 -0 0 2 3 3 4 5 6 5 6 7 9 8 8 10 10 10 7 7 9 6 7 5 3 4 7 10 10 10 10 9 9 9 10
-2 -2 -1 -1 -0 1 2 3 4 4 5 5 6 6 7 8 8 9 8 10 10 12 9 10 8 9 6 3 2 4 7 8 9 9 9 9 9 9
-2 -1 -0 0 1 2 3 3 4 4 4 5 5 6 6 7 7 9 9 9 9 8 9 10 11 9 8 7 3 3 4 4 7 8 9 8 8 7
-1 -1 0 1 2 2 3 3 4 4 5 4 5 6 6 5 7 8 8 8 8 7 8 9 10 10 9 9 8 5 5 5 5 6 7 7 7 7
-1 -0 -0 0 2 2 2 2 3 4 4 4 5 5 5 6 7 7 8 8 6 4 5 6 7 9 9 7 5 6 6 5 5 6 6 5 4 5
0 0 1 1 2 1 2 2 4 4 4 5 5 5 6 6 6 7 7 7 5 4 6 6 7 6 5 4 6 5 5 5 4 5 5 5 3 3
1 1 1 2 1 2 3 4 5 5 5 4 5 5 6 6 7 6 6 6 4 5 6 6 7 8 4 0 1 3 4 4 3 3 4 4 3 2
2 2 2 3 3 3 4 4 4 4 4 4 5 5 6 6 6 5 5 5 5 4 4 6 7 7 6 3 2 2 2 3 3 3 2 2 1 1
3 3 3 3 3 4 4 4 4 4 4 5 5 5 6 6 5 5 4 4 5 4 4 5 6 7 8 7 4 -0 1 2 3 4 3 2 0 -0
2 3 3 4 4 4 4 4 4 5 5 5 5 5 5 6 6 6 6 5 5 5 6 5 5 6 7 6 1 0 -0 0 1 2 2 2 2 1
4 4 4 4 4 4 5 5 4 5 5 5 5 5 5 5 6 6 6 6 6 6 5 4 4 5 5 3 3 0 -0 -0 -0 -0 0 0 1 2
Height
784 788 793 798 802 805 809 812 816 823 822 816 816 818 820 821 824 826 828 830 832 833 835 837 839 843 847 849 856 864 871 877 882 887 891 896 900 905
778 782 788 793 798 802 806 810 814 818 822 818 817 817 819 820 822 824 826 828 829 830 832 834 837 841 845 848 856 864 870 877 884 887 892 897 902 906
773 776 782 788 794 798 803 808 812 816 819 818 816 815 818 819 821 823 824 825 826 828 830 832 834 839 843 848 856 862 872 879 885 887 892 898 903 906
770 772 777 783 791 797 801 806 810 814 818 819 816 815 817 819 820 821 823 823 824 825 827 828 832 837 843 848 857 859 872 879 884 889 894 899 904 907
765 769 776 779 788 795 799 804 808 813 817 819 818 816 817 819 820 820 822 821 820 822 824 827 831 836 840 848 855 860 873 880 884 891 896 900 905 908
762 767 774 778 785 792 797 801 807 812 816 818 817 816 816 818 819 819 821 820 821 821 823 827 831 836 842 850 856 859 873 880 885 891 897 901 905 909
759 764 770 775 784 790 795 800 806 811 814 816 817 815 815 816 818 819 820 820 821 821 824 827 831 838 844 850 858 864 869 879 886 893 897 902 906 910
756 761 766 774 781 789 795 799 804 809 812 814 815 815 815 816 818 819 819 820 822 822 823 829 835 840 847 855 859 863 869 879 887 893 898 903 907 911
755 760 766 772 778 786 794 799 804 808 811 813 814 815 814 815 817 818 820 820 820 821 821 829 835 840 849 857 862 868 873 880 887 893 898 904 909 913
755 759 765 770 776 783 793 798 803 807 810 811 813 813 813 812 813 816 817 820 821 825 826 834 839 842 851 857 864 870 877 882 889 894 899 904 909 913
757 761 765 770 776 783 791 796 802 805 808 811 811 812 810 811 812 812 815 817 823 827 829 835 841 846 854 859 866 874 880 884 891 896 900 905 909 914
759 764 768 771 777 784 790 796 800 805 808 810 811 811 810 810 811 812 815 816 820 828 831 838 843 848 857 865 869 876 881 888 892 897 903 907 911 914
761 764 769 774 780 788 793 796 801 805 808 809 810 810 810 810 812 813 815 817 821 826 830 833 844 847 856 872 874 878 883 889 894 899 904 908 911 915
764 766 772 777 784 790 794 799 802 806 808 809 809 810 809 811 813 815 818 820 824 824 833 837 842 845 854 870 877 882 885 890 896 900 904 908 913 916
767 772 778 783 787 792 796 800 803 807 808 808 809 810 810 811 811 814 819 823 825 830 837 841 842 850 855 863 875 884 888 894 897 901 905 910 914 917
776 780 784 787 792 795 799 803 806 808 808 809 811 811 812 814 814 818 821 825 831 836 841 844 849 853 860 867 873 884 890 895 900 904 906 911 915 918
782 785 789 792 795 800 803 805 806 808 809 810 811 813 814 815 817 819 822 826 830 838 844 849 854 857 862 870 880 887 891 895 901 904 908 911 913 915
787 790 793 797 800 802 804 806 807 809 810 811 813 814 816 818 820 822 825 828 832 839 845 851 855 862 871 881 886 888 893 896 901 905 908 910 914 918
791 795 798 801 802 804 806 807 809 810 811 813 814 816 818 820 823 826 828 831 837 842 848 852 858 862 873 884 891 893 892 896 901 905 909 912 913 917
797 799 801 802 803 805 807 809 810 811 813 814 816 818 819 822 824 828 832 834 837 846 851 856 861 865 869 877 886 893 897 898 901 904 909 912 914 917
801 801 803 806 807 808 809 810 811 813 815 815 817 820 822 823 828 831 833 837 842 848 854 860 865 870 873 878 885 894 898 901 905 906 907 911 914 917
806 807 807 808 809 810 810 812 814 814 816 818 820 821 824 826 828 832 836 840 845 849 856 862 868 872 875 878 882 888 896 901 905 907 909 911 913 915
809 809 810 811 812 811 812 813 815 815 818 819 821 824 827 829 831 836 839 844 848 854 858 864 869 873 877 880 883 889 895 899 902 906 910 912 914 915
Wind_Speed
35 31 29 23 18 20 17 14 8 1 2 7 6 10 11 12 16 16 14 13 13 16 16 18 27 23 22 31 37 36 34 30 31 30 25 22 22 19
27 33 30 27 21 20 19 14 12 7 1 2 14 11 10 10 13 10 14 13 12 14 15 15 24 24 21 39 37 36 33 30 32 30 25 23 21 18
18 27 29 23 22 22 21 18 15 8 2 14 18 14 14 10 12 12 12 13 13 14 15 16 23 22 23 41 38 38 34 34 31 29 25 22 20 18
22 19 26 20 21 21 21 20 17 8 7 9 16 10 11 8 10 11 14 14 15 12 14 17 24 23 31 43 37 39 32 31 29 27 24 21 20 18
22 18 18 25 21 23 23 19 17 11 12 9 14 10 12 9 8 12 8 8 11 14 15 23 24 24 30 33 39 35 31 30 27 25 23 23 23 21
21 22 26 22 19 28 25 21 18 14 13 12 14 12 10 13 10 10 6 6 5 5 18 24 25 24 36 42 35 35 32 29 27 25 26 26 24 22
17 24 27 28 24 25 26 22 20 18 13 11 13 6 9 6 10 8 6 6 3 7 18 19 28 38 39 40 39 38 37 30 28 28 27 26 23 20
16 24 20 28 30 25 22 22 23 21 16 14 11 7 10 12 12 10 5 6 5 9 18 22 31 37 39 40 39 38 38 32 30 29 27 25 22 19
20 20 20 24 31 29 22 24 24 22 19 12 8 4 7 9 14 13 11 18 5 16 31 25 29 33 36 36 36 37 36 33 31 29 28 26 23 20
18 22 21 26 26 28 28 25 28 21 20 12 8 7 12 15 13 14 20 15 26 21 33 11 24 30 31 35 40 39 36 33 31 30 28 26 24 22
17 18 20 27 32 29 27 28 24 20 17 15 9 9 11 9 9 14 23 22 13 13 17 25 19 32 29 33 35 32 30 32 31 29 27 25 24 23
19 19 20 25 33 30 30 25 21 17 13 14 9 8 4 10 7 14 25 15 20 11 16 13 27 24 11 21 30 36 34 32 29 27 25 23 23 24
16 21 23 29 26 25 27 24 20 17 13 9 9 8 9 10 10 13 22 28 24 10 20 28 20 23 14 12 27 31 34 33 30 28 25 23 22 20
15 25 25 28 23 24 22 17 16 16 8 8 9 8 7 9 10 20 20 25 22 30 34 37 27 34 30 18 11 26 31 32 31 29 25 25 22 20
24 29 32 28 22 23 16 16 15 13 9 9 10 6 6 12 22 22 19 18 22 32 25 31 34 39 35 28 20 25 26 24 30 28 25 23 21 21
23 23 23 23 20 19 15 19 11 9 10 9 7 5 11 19 25 27 29 31 32 25 24 28 34 42 37 39 41 32 29 13 25 27 26 23 20 17
24 24 21 20 20 17 10 11 10 8 10 9 9 14 20 26 28 29 32 31 30 31 31 31 35 40 38 40 36 34 22 29 26 26 24 21 18 16
23 23 20 19 17 14 13 10 8 9 9 10 12 19 24 28 31 32 34 39 37 35 37 35 36 36 33 26 29 28 26 30 26 23 22 20 16 14
20 17 18 16 15 15 13 12 10 11 10 13 17 21 24 27 30 30 32 35 33 37 37 38 38 41 19 3 9 19 26 29 27 22 18 14 16 15
17 17 16 12 12 13 13 13 13 12 13 15 18 20 23 28 29 30 33 34 36 34 30 32 34 33 29 19 12 13 17 26 27 23 17 12 14 15
15 13 13 14 15 14 13 13 13 14 15 16 16 19 24 26 29 31 32 33 36 33 30 27 24 24 24 22 21 17 18 19 18 16 18 16 14 11
17 15 13 12 12 12 14 15 16 15 16 19 20 21 22 26 28 29 31 34 32 33 29 24 21 22 23 14 23 25 23 17 16 10 14 7 5 9
13 11 10 12 11 10 10 12 15 15 17 19 20 21 23 27 29 30 30 31 31 31 29 26 23 18 13 21 28 29 21 22 20 16 10 8 5 5
Wind_Direction
226 221 219 218 219 213 203 190 153 119 300 220 182 206 219 231 213 217 218 212 229 226 222 223 211 217 201 181 185 182 178 178 172 171 167 165 167 165
227 219 215 212 211 201 195 187 190 150 224 320 323 204 205 201 204 200 206 225 229 222 220 216 207 211 202 180 187 179 179 174 176 167 168 168 167 165
204 212 205 201 200 191 194 202 208 180 203 302 325 208 198 207 193 199 217 218 234 226 223 216 201 199 191 181 185 175 176 173 173 167 169 170 169 165
188 179 178 174 187 190 183 191 206 202 219 298 320 186 191 196 199 214 207 232 237 230 230 208 186 184 190 184 179 167 169 170 169 169 169 170 169 167
221 202 181 177 184 193 190 189 207 214 230 266 289 296 196 200 213 212 227 263 234 233 208 182 176 182 180 181 178 161 167 169 168 167 167 165 160 156
206 215 222 192 180 197 195 193 205 216 230 251 272 274 208 202 219 216 246 199 181 195 180 175 179 182 176 175 159 159 165 168 167 165 165 159 158 155
203 205 202 208 205 185 182 186 206 214 216 239 278 260 201 193 213 224 234 193 185 176 172 178 171 163 159 168 162 158 158 165 167 167 164 160 157 155
172 190 180 191 192 180 192 192 200 207 207 226 257 249 214 217 232 239 224 154 166 181 165 142 162 157 164 164 163 160 159 166 170 167 162 158 154 155
192 183 169 177 186 195 186 197 201 208 207 238 251 262 288 295 231 233 237 183 139 153 143 105 136 140 160 169 165 161 160 165 167 160 158 155 153 153
170 163 175 186 184 183 193 193 198 201 208 236 252 276 259 284 229 241 203 163 137 138 151 98 125 125 156 167 165 162 163 165 165 160 156 154 153 154
169 167 163 168 183 187 177 176 181 193 210 227 243 263 278 200 212 195 155 148 132 131 141 130 122 122 132 141 154 156 163 160 159 156 157 156 156 156
151 162 170 161 169 168 171 169 178 185 206 213 234 278 199 176 185 202 170 149 131 109 140 121 133 128 82 116 143 154 156 155 156 157 157 159 162 159
155 154 164 164 155 168 173 176 179 184 195 223 280 269 166 175 174 171 176 167 150 121 152 136 148 128 106 116 127 139 149 154 156 156 157 160 163 165
136 143 157 159 156 157 165 165 175 181 208 256 258 201 158 174 186 176 171 167 165 164 154 156 150 147 140 121 117 137 145 149 153 153 158 167 164 171
127 138 150 155 155 157 153 163 175 192 230 218 187 178 167 159 146 154 160 169 149 150 157 163 158 151 140 140 137 140 135 142 150 154 157 160 164 161
131 136 142 155 158 160 159 160 179 205 215 199 181 183 177 144 140 151 143 143 145 134 154 158 158 155 145 146 151 147 146 141 152 153 153 154 158 164
125 130 134 139 147 160 171 184 187 196 177 192 181 164 157 151 147 151 151 148 140 135 136 150 156 154 150 152 147 152 150 152 157 156 160 155 157 173
111 118 127 144 158 155 154 160 174 181 189 190 175 168 159 151 151 150 149 146 139 138 139 143 145 135 131 131 151 154 156 158 162 166 167 160 158 168
116 119 132 139 143 153 157 175 180 201 206 194 178 169 164 155 156 155 151 145 135 143 147 149 150 149 130 100 137 163 163 165 163 162 170 176 174 169
113 121 127 138 144 152 163 170 182 187 186 188 174 172 170 162 156 153 153 145 143 144 146 155 160 160 153 155 147 159 181 170 170 166 162 162 156 165
115 121 133 135 145 155 169 174 175 174 177 184 183 173 170 166 158 156 150 148 147 147 144 153 159 169 161 150 135 143 162 180 182 177 168 159 156 171
115 130 139 137 146 155 164 162 161 168 174 171 172 175 173 171 161 157 156 152 152 155 147 146 147 155 158 169 154 154 158 165 167 166 164 160 168 195
111 115 124 134 138 143 153 156 154 162 165 166 166 168 169 165 164 163 161 160 157 152 152 147 151 160 163 166 163 159 158 157 154 154 150 130 126 149